Weather History for KLVS - December, 2012

Change the Weather History Date:

Wednesday, December 5, 2012

  Actual Average Record
Temperature  
Mean Temperature 52 °F -  
Max Temperature 68 °F 50 °F 68 °F (1958)
Min Temperature 36 °F 22 °F -4 °F (2011)
Degree Days  
Heating Degree Days 13    
Growing Degree Days 2 (Base 50)    
Moisture  
Dew Point 15 °F    
Average Humidity 26    
Maximum Humidity 37    
Minimum Humidity 14    
Precipitation  
Precipitation 0.00 in - - ()
Sea Level Pressure  
Sea Level Pressure 29.98 in    
Wind  
Wind Speed 7 mph (WSW)    
Max Wind Speed 18 mph    
Max Gust Speed -    
Visibility 10 miles    
Events      
Averages and records for this station are not official NWS values.
T = Trace of Precipitation, MM = Missing Value Source: NWS Daily Summary

Daily Weather History Graph

Daily Weather History Graph

Search for Another Location

Airport or City:

Trip Planner

Search our weather history database for the weather conditions in past years. The results will help you decide how hot, cold, wet, or windy it might be!

Date:

Astronomy

Dec. 05, 2012 Rise Set
Actual Time 6:55 AM MST 4:47 PM MST
Civil Twilight 6:27 AM MST 5:15 PM MST
Nautical Twilight 5:55 AM MST 5:46 PM MST
Astronomical Twilight 5:24 AM MST 6:17 PM MST
Moon 11:28 PM MST (12/5) 11:29 AM MST (12/5)
Length of Visible Light 10h 47m
Length of Day
9h 51m
Waning Gibbous, 59% of the Moon is Illuminated
Dec 5
Waning Gibbous
Dec 6
Last Quarter
Dec 13
New
Dec 19
First Quarter
Dec 28
Full

Hourly Weather History & Observations

Time (MST) Temp. Windchill Dew Point Humidity Pressure Visibility Wind Dir Wind Speed Gust Speed Precip Events Conditions
12:53 AM 36.0 °F 30.3 °F 12.0 °F 37% 30.16 in 10.0 mi NNW 6.9 mph - N/A   Clear
1:53 AM 37.9 °F 33.5 °F 12.0 °F 35% 30.13 in 10.0 mi NNW 5.8 mph - N/A   Clear
2:53 AM 39.0 °F 34.0 °F 10.0 °F 30% 30.11 in 10.0 mi NNE 6.9 mph - N/A   Clear
3:53 AM 42.1 °F 40.2 °F 9.0 °F 26% 30.10 in 10.0 mi NNW 3.5 mph - N/A   Clear
4:53 AM 41.0 °F 38.0 °F 12.0 °F 31% 30.12 in 10.0 mi West 4.6 mph - N/A   Clear
5:53 AM 39.9 °F 36.7 °F 12.0 °F 32% 30.16 in 10.0 mi West 4.6 mph - N/A   Clear
7:53 AM 45.0 °F 43.5 °F 12.9 °F 27% 30.14 in 10.0 mi WNW 3.5 mph - N/A   Clear
8:53 AM 50.0 °F - 15.1 °F 25% 30.11 in 10.0 mi Calm Calm - N/A   Clear
9:53 AM 55.9 °F - 12.0 °F 18% 30.08 in 10.0 mi Calm Calm - N/A   Clear
10:53 AM 60.1 °F - 15.1 °F 17% 30.03 in 10.0 mi Calm Calm - N/A   Clear
11:53 AM 63.0 °F - 17.1 °F 17% 29.99 in 10.0 mi South 5.8 mph - N/A   Clear
12:53 PM 66.0 °F - 19.0 °F 17% 29.92 in 10.0 mi SSE 8.1 mph - N/A   Clear
1:53 PM 68.0 °F - 16.0 °F 14% 29.86 in 10.0 mi West 10.4 mph - N/A   Clear
2:53 PM 68.0 °F - 16.0 °F 14% 29.84 in 10.0 mi WSW 18.4 mph - N/A   Clear
3:53 PM 63.0 °F - 17.1 °F 17% 29.84 in 10.0 mi WSW 12.7 mph - N/A   Clear
4:53 PM 55.0 °F - 17.1 °F 23% 29.89 in 10.0 mi WSW 10.4 mph - N/A   Clear
5:53 PM 51.1 °F - 16.0 °F 25% 29.91 in 10.0 mi WSW 11.5 mph - N/A   Clear
6:53 PM 50.0 °F - 16.0 °F 26% 29.93 in 10.0 mi WSW 11.5 mph - N/A   Clear
7:53 PM 50.0 °F - 16.0 °F 26% 29.89 in 10.0 mi SW 9.2 mph - N/A   Clear
8:53 PM 43.0 °F 36.8 °F 16.0 °F 34% 29.88 in 10.0 mi SSW 11.5 mph - N/A   Clear
9:53 PM 42.1 °F 36.1 °F 16.0 °F 35% 29.85 in 10.0 mi SSW 10.4 mph - N/A   Clear
10:53 PM 45.0 °F 40.6 °F 15.1 °F 30% 29.80 in 10.0 mi SSW 8.1 mph - N/A   Clear
11:53 PM 43.0 °F 37.7 °F 16.0 °F 34% 29.78 in 10.0 mi South 9.2 mph - N/A   Clear